Time,TemperatureF,DewpointF,PressureIn,WindDirection,WindDirectionDegrees,WindSpeedMPH,WindSpeedGustMPH,Humidity,HourlyPrecipIn,Conditions,Clouds,dailyrainin,SolarRadiationWatts/m^2,SoftwareType,DateUTC
2013-03-19 00:00:00,47.0,22.0,-100.00,NW,306,5.0,17.0,37,0.00,,,0.00,0.000000,,2013-03-19 07:00:00,
2013-03-19 00:32:00,47.0,22.0,-100.00,NW,306,5.0,17.0,37,0.00,,,0.00,0.000000,,2013-03-19 07:32:00,
2013-03-19 00:42:00,47.0,22.0,-100.00,NW,306,5.0,17.0,37,0.00,,,0.00,0.000000,,2013-03-19 07:42:00,
2013-03-19 00:52:00,47.0,22.0,-100.00,NW,306,5.0,17.0,37,0.00,,,0.00,0.000000,,2013-03-19 07:52:00,
2013-03-19 01:32:00,47.0,30.0,-100.00,WSW,254,2.0,17.0,52,0.00,,,0.00,0.000000,,2013-03-19 08:32:00,
2013-03-19 01:42:00,47.0,30.0,-100.00,WSW,254,2.0,17.0,52,0.00,,,0.00,0.000000,,2013-03-19 08:42:00,
2013-03-19 01:52:00,47.0,30.0,-100.00,WSW,254,2.0,17.0,52,0.00,,,0.00,0.000000,,2013-03-19 08:52:00,
2013-03-19 02:00:00,42.0,26.0,-100.00,North,4,2.0,7.0,53,0.00,,,0.00,0.000000,,2013-03-19 09:00:00,
2013-03-19 02:23:00,42.0,26.0,-100.00,North,4,2.0,7.0,53,0.00,,,0.00,0.000000,,2013-03-19 09:23:00,
2013-03-19 02:33:00,42.0,26.0,-100.00,North,4,2.0,7.0,53,0.00,,,0.00,0.000000,,2013-03-19 09:33:00,
2013-03-19 02:43:00,42.0,26.0,-100.00,North,4,2.0,7.0,53,0.00,,,0.00,0.000000,,2013-03-19 09:43:00,
2013-03-19 02:53:00,42.0,26.0,-100.00,North,4,2.0,7.0,53,0.00,,,0.00,0.000000,,2013-03-19 09:53:00,
2013-03-19 03:00:00,41.0,18.0,-100.00,NW,304,3.0,9.0,39,0.00,,,0.00,0.000000,,2013-03-19 10:00:00,
2013-03-19 03:33:00,41.0,18.0,-100.00,NW,304,3.0,9.0,39,0.00,,,0.00,0.000000,,2013-03-19 10:33:00,
2013-03-19 03:42:00,41.0,18.0,-100.00,NW,304,3.0,9.0,39,0.00,,,0.00,0.000000,,2013-03-19 10:42:00,
2013-03-19 03:53:00,41.0,18.0,-100.00,NW,304,3.0,9.0,39,0.00,,,0.00,0.000000,,2013-03-19 10:53:00,
2013-03-19 04:00:00,44.0,23.0,-100.00,NNW,340,3.0,10.0,44,0.00,,,0.00,0.000000,,2013-03-19 11:00:00,
2013-03-19 04:33:00,44.0,23.0,-100.00,NNW,340,3.0,10.0,44,0.00,,,0.00,0.000000,,2013-03-19 11:33:00,
2013-03-19 04:43:00,44.0,23.0,-100.00,NNW,340,3.0,10.0,44,0.00,,,0.00,0.000000,,2013-03-19 11:43:00,
2013-03-19 04:52:00,44.0,23.0,-100.00,NNW,340,3.0,10.0,44,0.00,,,0.00,0.000000,,2013-03-19 11:52:00,
2013-03-19 05:00:00,41.0,24.0,-100.00,NW,321,2.0,8.0,51,0.00,,,0.00,0.000000,,2013-03-19 12:00:00,
2013-03-19 05:23:00,41.0,24.0,-100.00,NW,321,2.0,8.0,51,0.00,,,0.00,0.000000,,2013-03-19 12:23:00,
2013-03-19 05:33:00,41.0,24.0,-100.00,NW,321,2.0,8.0,51,0.00,,,0.00,0.000000,,2013-03-19 12:33:00,
2013-03-19 05:43:00,41.0,24.0,-100.00,NW,321,2.0,8.0,51,0.00,,,0.00,0.000000,,2013-03-19 12:43:00,
2013-03-19 05:52:00,41.0,24.0,-100.00,NW,321,2.0,8.0,51,0.00,,,0.00,0.000000,,2013-03-19 12:52:00,
2013-03-19 06:00:00,40.0,21.0,-100.00,NE,52,3.0,7.0,47,0.00,,,0.00,0.000000,,2013-03-19 13:00:00,
2013-03-19 06:33:00,40.0,21.0,-100.00,NE,52,3.0,7.0,47,0.00,,,0.00,0.000000,,2013-03-19 13:33:00,
2013-03-19 06:42:00,40.0,21.0,-100.00,NE,52,3.0,7.0,47,0.00,,,0.00,0.000000,,2013-03-19 13:42:00,
2013-03-19 06:52:00,40.0,21.0,-100.00,NE,52,3.0,7.0,47,0.00,,,0.00,0.000000,,2013-03-19 13:52:00,
2013-03-19 07:00:00,40.0,23.0,-100.00,NNE,14,5.0,10.0,50,0.00,,,0.00,0.000000,,2013-03-19 14:00:00,
2013-03-19 07:33:00,40.0,23.0,-100.00,NNE,14,5.0,10.0,50,0.00,,,0.00,0.000000,,2013-03-19 14:33:00,
2013-03-19 07:42:00,40.0,23.0,-100.00,NNE,14,5.0,10.0,50,0.00,,,0.00,0.000000,,2013-03-19 14:42:00,
2013-03-19 07:52:00,40.0,23.0,-100.00,NNE,14,5.0,10.0,50,0.00,,,0.00,0.000000,,2013-03-19 14:52:00,
2013-03-19 08:00:00,41.0,19.0,-100.00,NNE,24,3.0,13.0,41,-99.99,,,0.00,0.000000,,2013-03-19 15:00:00,
2013-03-19 08:34:00,41.0,19.0,-100.00,NNE,24,3.0,13.0,41,-99.99,,,0.00,0.000000,,2013-03-19 15:34:00,
2013-03-19 08:44:00,41.0,19.0,-100.00,NNE,24,3.0,13.0,41,-99.99,,,0.00,0.000000,,2013-03-19 15:44:00,
2013-03-19 08:53:00,41.0,19.0,-100.00,NNE,24,3.0,13.0,41,-99.99,,,0.00,0.000000,,2013-03-19 15:53:00,
2013-03-19 09:34:00,44.0,16.0,-100.00,NE,46,2.0,14.0,32,0.00,,,0.00,46.000000,,2013-03-19 16:34:00,
2013-03-19 09:44:00,44.0,16.0,-100.00,NE,46,2.0,14.0,32,0.00,,,0.00,46.000000,,2013-03-19 16:44:00,
2013-03-19 10:00:00,53.0,20.0,-100.00,NE,47,4.0,6.0,27,-99.99,,,0.00,314.000000,,2013-03-19 17:00:00,
2013-03-19 10:34:00,53.0,20.0,-100.00,NE,47,4.0,6.0,27,-99.99,,,0.00,314.000000,,2013-03-19 17:34:00,
2013-03-19 10:44:00,53.0,20.0,-100.00,NE,47,4.0,6.0,27,-99.99,,,0.00,314.000000,,2013-03-19 17:44:00,
2013-03-19 10:53:00,53.0,20.0,-100.00,NE,47,4.0,6.0,27,-99.99,,,0.00,314.000000,,2013-03-19 17:53:00,
2013-03-19 11:00:00,57.0,19.0,-100.00,NNE,28,3.0,7.0,22,0.00,,,0.00,472.000000,,2013-03-19 18:00:00,
2013-03-19 11:34:00,57.0,19.0,-100.00,NNE,28,3.0,7.0,22,0.00,,,0.00,472.000000,,2013-03-19 18:34:00,
2013-03-19 11:43:00,57.0,19.0,-100.00,NNE,28,3.0,7.0,22,0.00,,,0.00,472.000000,,2013-03-19 18:43:00,
2013-03-19 11:53:00,57.0,19.0,-100.00,NNE,28,3.0,7.0,22,0.00,,,0.00,472.000000,,2013-03-19 18:53:00,
2013-03-19 12:00:00,63.0,22.0,-100.00,NNE,15,4.0,9.0,21,0.00,,,0.00,751.000000,,2013-03-19 19:00:00,
2013-03-19 12:33:00,63.0,22.0,-100.00,NNE,15,4.0,9.0,21,0.00,,,0.00,751.000000,,2013-03-19 19:33:00,
2013-03-19 12:43:00,63.0,22.0,-100.00,NNE,15,4.0,9.0,21,0.00,,,0.00,751.000000,,2013-03-19 19:43:00,
2013-03-19 12:53:00,63.0,22.0,-100.00,NNE,15,4.0,9.0,21,0.00,,,0.00,751.000000,,2013-03-19 19:53:00,
2013-03-19 13:00:00,64.0,23.0,-100.00,NNE,20,5.0,9.0,21,0.00,,,0.00,907.000000,,2013-03-19 20:00:00,
2013-03-19 13:33:00,64.0,23.0,-100.00,NNE,20,5.0,9.0,21,0.00,,,0.00,907.000000,,2013-03-19 20:33:00,
2013-03-19 13:43:00,64.0,23.0,-100.00,NNE,20,5.0,9.0,21,0.00,,,0.00,907.000000,,2013-03-19 20:43:00,
2013-03-19 13:52:00,64.0,23.0,-100.00,NNE,20,5.0,9.0,21,0.00,,,0.00,907.000000,,2013-03-19 20:52:00,
2013-03-19 14:00:00,67.0,16.0,-100.00,North,353,4.0,11.0,14,0.00,,,0.00,953.000000,,2013-03-19 21:00:00,
2013-03-19 14:34:00,67.0,16.0,-100.00,North,353,4.0,11.0,14,0.00,,,0.00,953.000000,,2013-03-19 21:34:00,
2013-03-19 14:43:00,67.0,16.0,-100.00,North,353,4.0,11.0,14,0.00,,,0.00,953.000000,,2013-03-19 21:43:00,
2013-03-19 14:53:00,67.0,16.0,-100.00,North,353,4.0,11.0,14,0.00,,,0.00,953.000000,,2013-03-19 21:53:00,
2013-03-19 15:00:00,73.0,26.0,-100.00,ESE,121,3.0,9.0,17,0.00,,,0.00,954.000000,,2013-03-19 22:00:00,
2013-03-19 15:33:00,73.0,26.0,-100.00,ESE,121,3.0,9.0,17,0.00,,,0.00,954.000000,,2013-03-19 22:33:00,
2013-03-19 15:43:00,73.0,26.0,-100.00,ESE,121,3.0,9.0,17,0.00,,,0.00,954.000000,,2013-03-19 22:43:00,
2013-03-19 15:53:00,73.0,26.0,-100.00,ESE,121,3.0,9.0,17,0.00,,,0.00,954.000000,,2013-03-19 22:53:00,
2013-03-19 16:00:00,71.0,29.0,-100.00,West,275,7.0,10.0,21,0.00,,,0.00,895.000000,,2013-03-19 23:00:00,
2013-03-19 16:22:00,71.0,29.0,-100.00,West,275,7.0,10.0,21,0.00,,,0.00,895.000000,,2013-03-19 23:22:00,
2013-03-19 16:33:00,71.0,29.0,-100.00,West,275,7.0,10.0,21,0.00,,,0.00,895.000000,,2013-03-19 23:33:00,
2013-03-19 16:43:00,71.0,29.0,-100.00,West,275,7.0,10.0,21,0.00,,,0.00,895.000000,,2013-03-19 23:43:00,
2013-03-19 16:52:00,71.0,29.0,-100.00,West,275,7.0,10.0,21,0.00,,,0.00,895.000000,,2013-03-19 23:52:00,
2013-03-19 17:00:00,71.0,30.0,-100.00,WNW,283,3.0,15.0,22,0.00,,,0.00,761.000000,,2013-03-20 00:00:00,
2013-03-19 17:33:00,71.0,30.0,-100.00,WNW,283,3.0,15.0,22,0.00,,,0.00,761.000000,,2013-03-20 00:33:00,
2013-03-19 17:42:00,71.0,30.0,-100.00,WNW,283,3.0,15.0,22,0.00,,,0.00,761.000000,,2013-03-20 00:42:00,
2013-03-19 17:52:00,71.0,30.0,-100.00,WNW,283,3.0,15.0,22,0.00,,,0.00,761.000000,,2013-03-20 00:52:00,
2013-03-19 18:23:00,69.0,34.0,-100.00,NE,34,6.0,13.0,27,-99.99,,,0.00,560.000000,,2013-03-20 01:23:00,
2013-03-19 18:32:00,69.0,34.0,-100.00,NE,34,6.0,13.0,27,-99.99,,,0.00,560.000000,,2013-03-20 01:32:00,
2013-03-19 18:43:00,69.0,34.0,-100.00,NE,34,6.0,13.0,27,-99.99,,,0.00,560.000000,,2013-03-20 01:43:00,
2013-03-19 19:23:00,62.0,36.0,-100.00,West,264,7.0,17.0,38,-99.99,,,0.00,302.000000,,2013-03-20 02:23:00,
2013-03-19 19:32:00,62.0,36.0,-100.00,West,264,7.0,17.0,38,-99.99,,,0.00,302.000000,,2013-03-20 02:32:00,
2013-03-19 20:00:00,52.0,31.0,-100.00,NW,304,3.0,17.0,44,-99.99,,,0.00,54.000000,,2013-03-20 03:00:00,
2013-03-19 20:34:00,52.0,31.0,-100.00,NW,304,3.0,17.0,44,-99.99,,,0.00,54.000000,,2013-03-20 03:34:00,
2013-03-19 20:43:00,52.0,31.0,-100.00,NW,304,3.0,17.0,44,-99.99,,,0.00,54.000000,,2013-03-20 03:43:00,
2013-03-19 20:53:00,52.0,31.0,-100.00,NW,304,3.0,17.0,44,-99.99,,,0.00,54.000000,,2013-03-20 03:53:00,
2013-03-19 21:00:00,49.0,27.0,-100.00,NNW,341,7.0,17.0,43,0.00,,,0.00,0.000000,,2013-03-20 04:00:00,
2013-03-19 21:23:00,49.0,27.0,-100.00,NNW,341,7.0,17.0,43,0.00,,,0.00,0.000000,,2013-03-20 04:23:00,
2013-03-19 21:32:00,49.0,27.0,-100.00,NNW,341,7.0,17.0,43,0.00,,,0.00,0.000000,,2013-03-20 04:32:00,
2013-03-19 21:43:00,49.0,27.0,-100.00,NNW,341,7.0,17.0,43,0.00,,,0.00,0.000000,,2013-03-20 04:43:00,
2013-03-19 21:52:00,49.0,27.0,-100.00,NNW,341,7.0,17.0,43,0.00,,,0.00,0.000000,,2013-03-20 04:52:00,
2013-03-19 22:00:00,50.0,28.0,-100.00,West,268,7.0,20.0,42,0.00,,,0.00,0.000000,,2013-03-20 05:00:00,
2013-03-19 22:32:00,50.0,28.0,-100.00,West,268,7.0,20.0,42,0.00,,,0.00,0.000000,,2013-03-20 05:32:00,
2013-03-19 22:42:00,50.0,28.0,-100.00,West,268,7.0,20.0,42,0.00,,,0.00,0.000000,,2013-03-20 05:42:00,
2013-03-19 22:52:00,50.0,28.0,-100.00,West,268,7.0,20.0,42,0.00,,,0.00,0.000000,,2013-03-20 05:52:00,
2013-03-19 23:00:00,51.0,30.0,-100.00,WSW,240,7.0,16.0,45,0.00,,,0.00,0.000000,,2013-03-20 06:00:00,
2013-03-19 23:32:00,51.0,30.0,-100.00,WSW,240,7.0,16.0,45,0.00,,,0.00,0.000000,,2013-03-20 06:32:00,
2013-03-19 23:43:00,51.0,30.0,-100.00,WSW,240,7.0,16.0,45,0.00,,,0.00,0.000000,,2013-03-20 06:43:00,
2013-03-19 23:52:00,51.0,30.0,-100.00,WSW,240,7.0,16.0,45,0.00,,,0.00,0.000000,,2013-03-20 06:52:00,